Date,TemperatureHighF,TemperatureAvgF,TemperatureLowF,DewpointHighF,DewpointAvgF,DewpointLowF,HumidityHigh,HumidityAvg,HumidityLow,PressureMaxIn,PressureMinIn,WindSpeedMaxMPH,WindSpeedAvgMPH,GustSpeedMaxMPH,PrecipitationSumIn
2013-2-1,31.5,25.6,20.6,12.1,4.5,-4.6,55,40,27,30.07,29.36,8,2,11,0.00
2013-2-2,29.4,22.8,13.5,9.3,0.2,-7.7,54,38,24,30.20,29.85,12,2,12,0.00
2013-2-3,30.6,24.9,17.5,10.9,8.3,5.6,64,49,39,29.99,29.51,3,0,4,0.00
2013-2-4,29.6,23.7,18.6,9.4,2.3,-4.5,57,40,25,29.86,29.51,9,2,11,0.00
2013-2-5,30.8,24.4,18.4,17.2,7.6,1.8,69,49,35,29.99,29.62,4,1,4,0.00
2013-2-6,35.0,27.8,22.0,22.5,10.3,-7.7,76,51,22,30.19,29.69,5,1,8,0.00
2013-2-7,30.5,23.4,14.3,5.3,-2.1,-7.1,55,34,22,30.50,30.15,4,1,7,0.00
2013-2-8,28.3,24.5,18.8,21.1,10.8,-6.7,78,59,23,30.38,29.61,5,1,11,0.00
2013-2-9,27.4,20.5,14.3,16.1,-0.5,-13.5,80,41,24,30.19,29.62,9,2,12,0.00
2013-2-10,34.6,18.7,0.4,9.2,-1.6,-11.8,60,42,21,30.44,30.03,3,0,4,0.00
2013-2-11,32.1,24.6,15.0,28.2,17.0,3.3,86,73,57,30.27,29.47,2,0,3,0.00
2013-2-12,39.3,36.7,34.1,26.9,24.0,19.1,65,60,53,29.78,29.45,4,1,8,0.20
2013-2-13,42.0,34.6,30.3,24.5,20.6,17.5,66,57,46,29.83,29.43,2,0,4,0.00
2013-2-14,43.8,35.4,22.7,24.1,19.9,14.8,72,54,39,29.85,29.47,4,0,4,0.00
2013-2-15,49.2,35.0,23.4,31.2,23.3,15.3,82,63,43,29.95,29.62,4,1,4,0.00
2013-2-16,38.9,33.6,26.9,27.3,19.4,-4.2,82,58,25,29.94,29.56,5,1,8,0.02
2013-2-17,26.9,21.8,14.4,-1.1,-5.8,-12.2,34,29,22,29.65,29.30,8,2,10,0.00
2013-2-18,29.4,20.7,11.4,-1.0,-8.1,-13.0,39,27,21,30.07,29.56,7,1,7,0.00
2013-2-19,41.1,30.0,15.9,33.7,15.1,-2.9,86,55,30,30.17,29.44,4,0,8,0.04
2013-2-20,35.0,29.9,25.2,30.6,12.5,4.3,85,49,31,30.31,29.92,11,2,11,0.01
2013-2-21,30.1,26.1,22.4,11.1,7.2,1.7,55,44,33,30.67,30.16,7,2,10,0.00
2013-2-22,40.5,31.3,17.9,20.8,15.6,7.3,68,53,39,30.91,30.56,4,0,4,0.00
2013-2-23,34.8,33.2,31.9,29.6,25.0,20.6,85,72,60,30.79,30.21,3,0,4,0.05
2013-2-24,39.6,34.6,32.4,33.7,29.9,28.2,86,83,76,30.37,30.10,2,0,5,0.28
2013-2-25,44.3,34.6,27.4,35.6,27.2,23.5,87,75,60,30.75,30.32,2,0,3,0.04
2013-2-26,41.4,35.6,31.0,31.2,26.8,22.8,83,71,54,30.90,30.50,4,0,5,0.00
2013-2-27,38.0,34.9,32.3,34.5,29.9,23.7,89,82,63,30.61,30.02,6,1,8,1.17
2013-2-28,40.9,35.0,31.2,33.9,30.3,26.9,87,83,75,30.18,29.71,2,0,2,0.01